< < Back
Terminal Aerodrome Forecast


Current Version              Previous Versions:   1  2  3  4  5  6  7  8  9  

Terminal Aerodrome Forecast

518
FTUS42 KFFC 280520
TAFFTY
TAF
KFTY 280520Z 2806/0106 34004KT P6SM FEW120
     FM280800 06005KT P6SM SCT020 BKN110
     FM281200 07007KT P6SM SCT015 BKN100
     FM281500 08011G18KT P6SM SCT035 BKN090
     FM010300 08006KT P6SM SCT015 BKN035=

Latest METAR

810
SAUS70 KWBC 010800 RRM
MTRFTY
METAR KFTY 010753Z 08006KT 10SM OVC014 04/01 A3051 RMK AO2 RAB12E24
SLP334 P0000 T00440006


USA.gov is the U.S. government's official web portal to all federal, state and local government web resources and services.